This is the latest recevied weather packets stored in our database for station/object W7MB. If no packets are shown the sender has not sent any weather packets the latest 10 day(s).
| Time | Temp. | Humidity | Pressure | Rain* | Wind** | Luminosity | Snow |
|---|---|---|---|---|---|---|---|
| 1778196603 | 25.56° C | 27% | 1012.8 hPa | 0 mm | - | - | - |
| 1778196243 | 26.11° C | 28% | 1012.9 hPa | 0 mm | - | - | - |
| 1778195883 | 26.11° C | 31% | 1012.9 hPa | 0 mm | - | - | - |
| 1778195523 | 26.11° C | 30% | 1012.9 hPa | 0 mm | - | - | - |
| 1778195163 | 26.11° C | 31% | 1013 hPa | 0 mm | - | - | - |
| 1778194804 | 26.11° C | 26% | 1013.1 hPa | 0 mm | - | - | - |
| 1778194443 | 26.11° C | 31% | 1013.2 hPa | 0 mm | - | - | - |
| 1778194083 | 26.11° C | 27% | 1013.3 hPa | 0 mm | - | - | - |
| 1778193723 | 26.11° C | 34% | 1013.3 hPa | 0 mm | - | - | - |
| 1778193363 | 26.67° C | 29% | 1013.2 hPa | 0 mm | - | - | - |
| 1778193003 | 26.67° C | 33% | 1013.3 hPa | 0 mm | - | - | - |
| 1778192643 | 26.67° C | 32% | 1013.4 hPa | 0 mm | - | - | - |
| 1778192283 | 26.11° C | 33% | 1013.4 hPa | 0 mm | - | - | - |
| 1778191923 | 26.11° C | 30% | 1013.5 hPa | 0 mm | - | - | - |
| 1778191563 | 26.11° C | 35% | 1013.6 hPa | 0 mm | - | - | - |
| 1778191203 | 26.11° C | 33% | 1013.7 hPa | 0 mm | - | - | - |
| 1778190843 | 25.56° C | 32% | 1013.7 hPa | 0 mm | - | - | - |
| 1778190483 | 25.56° C | 31% | 1013.8 hPa | 0 mm | - | - | - |
| 1778190123 | 25.56° C | 33% | 1013.8 hPa | 0 mm | - | - | - |
| 1778189763 | 25.56° C | 35% | 1013.9 hPa | 0 mm | - | - | - |
| 1778189403 | 25° C | 35% | 1014 hPa | 0 mm | - | - | - |
| 1778189043 | 25° C | 33% | 1014.1 hPa | 0 mm | - | - | - |
| 1778188683 | 25° C | 35% | 1014.1 hPa | 0 mm | - | - | - |
| 1778188324 | 25° C | 32% | 1014.2 hPa | 0 mm | - | - | - |
| 1778187963 | 25° C | 37% | 1014.3 hPa | 0 mm | - | - | - |
* Rain latest hour (hover to see other rain measurements)
** Current wind speed in m/s (hover to see current wind gust speed)